Stündliche Wetter Abin

Heute, 22 Juni, Dienstag

Zeit Temperatur Niederschläge Wind Luftdruck Luftfeuchtigkeit
00:00 +20°C° 0 mm 2 m/S 748 mmHg 89%
01:00 +19°C° 0 mm 2 m/S 748 mmHg 89%
02:00 +19°C° 0 mm 2 m/S 748 mmHg 88%
03:00 +20°C° 0 mm 2 m/S 748 mmHg 87%
04:00 +20°C° 0 mm 2 m/S 748 mmHg 86%
05:00 +20°C° 0 mm 2 m/S 748 mmHg 85%
06:00 +22°C° 0 mm 3 m/S 748 mmHg 80%
07:00 +25°C° 0 mm 3 m/S 748 mmHg 76%
08:00 +27°C° 0 mm 3 m/S 748 mmHg 72%
09:00 +28°C° 0 mm 3 m/S 748 mmHg 68%
10:00 +29°C° 0 mm 3 m/S 748 mmHg 64%
11:00 +30°C° 0 mm 3 m/S 748 mmHg 61%
12:00 +31°C° 0 mm 3 m/S 748 mmHg 60%
13:00 +32°C° 0 mm 4 m/S 748 mmHg 59%
14:00 +32°C° 0 mm 4 m/S 748 mmHg 58%
15:00 +31°C° 0 mm 3 m/S 748 mmHg 62%
16:00 +30°C° 0 mm 3 m/S 748 mmHg 66%
17:00 +30°C° 0 mm 3 m/S 748 mmHg 70%
18:00 +28°C° 0 mm 3 m/S 748 mmHg 75%
19:00 +27°C° 0 mm 3 m/S 748 mmHg 80%
20:00 +25°C° 0 mm 3 m/S 748 mmHg 84%
21:00 +24°C° 0 mm 3 m/S 748 mmHg 85%
22:00 +23°C° 0 mm 2 m/S 748 mmHg 85%
23:00 +21°C° 0 mm 2 m/S 748 mmHg 85%

Morgen, 23 Juni, Mittwoch

Zeit Temperatur Niederschläge Wind Luftdruck Luftfeuchtigkeit
00:00 +21°C° 0 mm 2 m/S 748 mmHg 85%
01:00 +20°C° 0 mm 2 m/S 748 mmHg 85%
02:00 +20°C° 0 mm 2 m/S 748 mmHg 85%
03:00 +20°C° 0 mm 2 m/S 748 mmHg 85%
04:00 +21°C° 0 mm 2 m/S 749 mmHg 85%
05:00 +21°C° 0 mm 2 m/S 749 mmHg 84%
06:00 +24°C° 0 mm 2 m/S 749 mmHg 80%
07:00 +25°C° 0 mm 3 m/S 749 mmHg 75%
08:00 +27°C° 0 mm 3 m/S 749 mmHg 70%
09:00 +28°C° 0 mm 3 m/S 749 mmHg 67%
10:00 +29°C° 0 mm 3 m/S 749 mmHg 64%
11:00 +30°C° 0 mm 4 m/S 749 mmHg 61%
12:00 +31°C° 0 mm 3 m/S 749 mmHg 59%
13:00 +31°C° 0 mm 3 m/S 749 mmHg 57%
14:00 +31°C° 0 mm 3 m/S 749 mmHg 55%
15:00 +31°C° 0 mm 3 m/S 749 mmHg 59%
16:00 +31°C° 0 mm 3 m/S 748 mmHg 64%
17:00 +30°C° 0 mm 2 m/S 748 mmHg 68%
18:00 +29°C° 0 mm 2 m/S 748 mmHg 73%
19:00 +27°C° 0 mm 2 m/S 748 mmHg 79%
20:00 +25°C° 0 mm 2 m/S 748 mmHg 84%
21:00 +24°C° 0 mm 2 m/S 748 mmHg 86%
22:00 +24°C° 0 mm 2 m/S 748 mmHg 87%
23:00 +23°C° 0 mm 2 m/S 748 mmHg 89%

übermorgen, 24 Juni, Donnerstag

Zeit Temperatur Niederschläge Wind Luftdruck Luftfeuchtigkeit
00:00 +23°C° 0 mm 2 m/S 748 mmHg 89%
01:00 +21°C° 0 mm 2 m/S 748 mmHg 90%
02:00 +21°C° 0 mm 2 m/S 748 mmHg 90%
03:00 +21°C° 0 mm 2 m/S 748 mmHg 89%
04:00 +23°C° 0 mm 2 m/S 748 mmHg 88%
05:00 +23°C° 0 mm 2 m/S 749 mmHg 87%
06:00 +25°C° 0 mm 2 m/S 749 mmHg 82%
07:00 +26°C° 0 mm 2 m/S 748 mmHg 77%
08:00 +28°C° 0 mm 2 m/S 748 mmHg 72%
09:00 +29°C° 0 mm 2 m/S 748 mmHg 69%
10:00 +30°C° 0 mm 3 m/S 748 mmHg 65%
11:00 +31°C° 0 mm 3 m/S 748 mmHg 62%
12:00 +31°C° 0 mm 2 m/S 748 mmHg 60%
13:00 +32°C° 0 mm 2 m/S 748 mmHg 58%
14:00 +32°C° 0 mm 2 m/S 748 mmHg 56%
15:00 +32°C° 0 mm 2 m/S 748 mmHg 59%
16:00 +32°C° 0 mm 1 m/S 748 mmHg 62%
17:00 +32°C° 0 mm 1 m/S 747 mmHg 65%
18:00 +30°C° 0 mm 1 m/S 747 mmHg 69%
19:00 +29°C° 0 mm 1 m/S 747 mmHg 74%
20:00 +27°C° 0 mm 1 m/S 747 mmHg 78%
21:00 +26°C° 0.1 mm 1 m/S 747 mmHg 80%
22:00 +25°C° 0.1 mm 1 m/S 747 mmHg 82%
23:00 +24°C° 0.1 mm 1 m/S 747 mmHg 84%

25 Juni, Freitag

Zeit Temperatur Niederschläge Wind Luftdruck Luftfeuchtigkeit
00:00 +24°C° 0.6 mm 1 m/S 747 mmHg 86%
01:00 +23°C° 0.6 mm 1 m/S 747 mmHg 88%
02:00 +21°C° 0.6 mm 0 m/S 747 mmHg 90%
03:00 +21°C° 0.1 mm 0 m/S 747 mmHg 89%
04:00 +22°C° 0.1 mm 0 m/S 747 mmHg 89%
05:00 +24°C° 0.1 mm 1 m/S 746 mmHg 88%
06:00 +26°C° 0 mm 1 m/S 746 mmHg 84%
07:00 +27°C° 0 mm 1 m/S 746 mmHg 79%
08:00 +28°C° 0 mm 1 m/S 746 mmHg 75%
09:00 +29°C° 0.1 mm 2 m/S 746 mmHg 71%
10:00 +30°C° 0.1 mm 2 m/S 746 mmHg 66%
11:00 +31°C° 0.1 mm 2 m/S 746 mmHg 62%
12:00 +32°C° 0 mm 1 m/S 746 mmHg 59%
13:00 +32°C° 0 mm 1 m/S 746 mmHg 56%
14:00 +33°C° 0 mm 1 m/S 746 mmHg 54%
15:00 +32°C° 0.1 mm 1 m/S 745 mmHg 59%
16:00 +31°C° 0.1 mm 2 m/S 745 mmHg 65%
17:00 +31°C° 0.1 mm 2 m/S 744 mmHg 70%
18:00 +27°C° 1.3 mm 3 m/S 745 mmHg 78%
19:00 +23°C° 1.3 mm 4 m/S 745 mmHg 85%
20:00 +20°C° 1.3 mm 5 m/S 745 mmHg 93%
21:00 +19°C° 0 mm 4 m/S 745 mmHg 92%
22:00 +19°C° 0 mm 3 m/S 744 mmHg 91%
23:00 +19°C° 0 mm 2 m/S 744 mmHg 90%

26 Juni, Samstag

Zeit Temperatur Niederschläge Wind Luftdruck Luftfeuchtigkeit
00:00 +19°C° 0 mm 2 m/S 744 mmHg 90%
01:00 +20°C° 0 mm 1 m/S 744 mmHg 90%
02:00 +20°C° 0 mm 1 m/S 744 mmHg 90%
03:00 +21°C° 0 mm 1 m/S 744 mmHg 90%
04:00 +21°C° 0 mm 1 m/S 744 mmHg 89%
05:00 +22°C° 0 mm 1 m/S 744 mmHg 88%
06:00 +21°C° 0 mm 0 m/S 744 mmHg 83%
07:00 +23°C° 0 mm 0 m/S 744 mmHg 79%
08:00 +24°C° 0 mm 0 m/S 744 mmHg 74%
09:00 +25°C° 0 mm 0 m/S 744 mmHg 69%
10:00 +29°C° 0 mm 1 m/S 744 mmHg 64%
11:00 +30°C° 0 mm 1 m/S 744 mmHg 59%
12:00 +30°C° 0.1 mm 1 m/S 744 mmHg 58%
13:00 +31°C° 0.1 mm 1 m/S 744 mmHg 56%
14:00 +31°C° 0.1 mm 1 m/S 744 mmHg 54%
15:00 +31°C° 0 mm 1 m/S 743 mmHg 57%
16:00 +31°C° 0 mm 1 m/S 743 mmHg 60%
17:00 +31°C° 0 mm 1 m/S 743 mmHg 62%
18:00 +29°C° 0.1 mm 1 m/S 742 mmHg 68%
19:00 +27°C° 0.1 mm 1 m/S 742 mmHg 74%
20:00 +25°C° 0.1 mm 1 m/S 742 mmHg 79%
21:00 +24°C° 0.4 mm 1 m/S 742 mmHg 82%
22:00 +23°C° 0.4 mm 1 m/S 742 mmHg 85%
23:00 +23°C° 0.4 mm 1 m/S 742 mmHg 89%

27 Juni, Sonntag

Zeit Temperatur Niederschläge Wind Luftdruck Luftfeuchtigkeit
00:00 +22°C° 0.6 mm 1 m/S 742 mmHg 90%
01:00 +22°C° 0.6 mm 1 m/S 743 mmHg 91%
02:00 +21°C° 0.6 mm 1 m/S 743 mmHg 92%
03:00 +22°C° 0.1 mm 1 m/S 743 mmHg 92%
04:00 +22°C° 0.1 mm 1 m/S 742 mmHg 91%
05:00 +22°C° 0.1 mm 1 m/S 742 mmHg 91%
06:00 +24°C° 0 mm 1 m/S 743 mmHg 85%
07:00 +25°C° 0 mm 1 m/S 743 mmHg 79%
08:00 +26°C° 0 mm 1 m/S 743 mmHg 74%
09:00 +27°C° 0 mm 1 m/S 743 mmHg 70%
10:00 +28°C° 0 mm 2 m/S 743 mmHg 66%
11:00 +30°C° 0 mm 2 m/S 743 mmHg 62%
12:00 +30°C° 0.2 mm 2 m/S 743 mmHg 61%
13:00 +30°C° 0.2 mm 2 m/S 743 mmHg 59%
14:00 +31°C° 0.2 mm 2 m/S 743 mmHg 58%
15:00 +31°C° 0 mm 2 m/S 742 mmHg 61%
16:00 +31°C° 0 mm 2 m/S 742 mmHg 64%
17:00 +30°C° 0 mm 1 m/S 742 mmHg 67%
18:00 +29°C° 0.2 mm 1 m/S 742 mmHg 71%
19:00 +27°C° 0.2 mm 1 m/S 742 mmHg 75%
20:00 +25°C° 0.2 mm 1 m/S 742 mmHg 80%
21:00 +24°C° 0.8 mm 1 m/S 741 mmHg 83%
22:00 +24°C° 0.8 mm 1 m/S 741 mmHg 86%
23:00 +23°C° 0.8 mm 2 m/S 741 mmHg 90%
Mehr zeigen

Wir brauchen deine Erlaubnis

Meteoprog und unser Service Anbieter werden persönliche Daten aufbewahren, so wie Cookies, Geräte Bezeichnung oder ähnliche Technologien von deinem Gerät und Prozess, so wie Persönliche Daten Inhalte und Werbungen, genauso wie social Media und den Verkehr zu analysieren.

  • Aufbewahrung und/oder Zugang zu deiner Geräte Informationen.

    Cookies, Geräte Bezeichnung oder andere Informationen, können aufbewahrt oder Zugang zu deinem Gerät erhalten, für den Grund, der oben angegeben wird.

  • Personalisierte Werbung und Inhalte, Messungen, Einblick in das Publikum und Produkt Entwicklung.

    Werbungen und Inhalte können personalisiert werden, basierend auf ein Profil. Mehr Daten können besser personalisierte Werbungen und Inhalte hinzufügen. Werbung und Inhalte können gezeigt und gemessen werden. Einblicke über das Publikum, welche die Werbung gesehen haben und den Inhalt, können abgeleitet werden. So wie Daten können genutzt werden, um es zu verbessern oder die Benutzer Erfahrung zu verbessern das System und die Software.

Wenn du “Ich stimme zu” klickst, erlaubst du uns, die Cookies zu benutzen die Geräte Bezeichnung, den Web oder ähnliche Technologien zu benutzen. Deine Settings, können in deinem Gerät bei deinem Browser geändert werden.

Für den bestimmten Zweck, berechtigten Interessen beruhen darauf, mehr als auf den Inhalt. Du kannst mehr darüber in unseren Privaten und Cookie Politik lesen.